Location: Unspecified
(0.0000°N, 0.0000°E)
Time: 06:38:32
(UTC+02:00)

Iridium 76 - Visible Passes

Search period start: 21 August 2017 00:00
Search period end: 31 August 2017 00:00
Orbit: 776 x 779 km, 86.4° (Epoch: 20 August)

Date Brightness Start Highest point End Pass type
(mag) Time Alt. Az. Time Alt. Az. Time Alt. Az.
21 Aug 7.3 06:34:20 10° NNE 06:38:56 32° E 06:43:34 10° SSE visible
22 Aug 8.5 06:02:42 10° ENE 06:05:30 15° E 06:08:18 10° ESE visible
23 Aug 5.5 07:07:18 10° N 07:12:27 69° W 07:17:39 10° S visible
24 Aug 6.3 06:33:57 10° NNE 06:39:00 53° E 06:44:05 10° SSE visible
25 Aug 7.7 06:01:27 10° NE 06:05:34 24° E 06:09:41 10° SE visible
26 Aug 8.7 05:31:38 10° E 05:32:07 10° E 05:32:36 10° E visible
26 Aug 5.9 07:07:39 10° NNW 07:12:31 42° W 07:17:26 10° SSW visible
27 Aug 5.5 06:33:52 10° N 06:39:05 87° E 06:44:19 10° S visible
28 Aug 6.9 06:00:49 10° NNE 06:05:37 38° E 06:10:27 10° SSE visible
29 Aug 8.1 05:28:48 10° NE 05:32:11 17° E 05:35:33 10° SE visible
29 Aug 6.4 07:08:20 10° NW 07:12:35 26° W 07:16:53 10° SW visible
30 Aug 5.5 06:34:03 10° N 06:39:08 58° W 06:44:17 10° SSW visible
